FW7042 Weather Reports


time (UTC)temp
C
wind
direction
speed
KPH
gust
KPH
rain 1hr
cm
rain 24hr
cm
rain mn
cm
humidity
%
barometer
mb
20260507125118 10 136 3.2 4.8 0.00 0.00 0.00 55 1022.0
20260507124614 10 208 0.0 0.0 0.00 0.00 0.00 56 1021.7
20260507124112 10 105 0.0 1.6 0.00 0.00 0.00 56 1021.5
20260507123610 10 243 0.0 0.0 0.00 0.00 0.00 57 1021.6
20260507123107 9 200 0.0 1.6 0.00 0.00 0.00 58 1021.6
20260507122602 8 203 0.0 0.0 0.00 0.00 0.00 59 1021.6
20260507122058 8 203 0.0 0.0 0.00 0.00 0.00 60 1021.5
20260507121554 8 221 1.6 3.2 0.00 0.00 0.00 61 1021.5
20260507121050 8 206 1.6 3.2 0.00 0.00 0.00 61 1021.7
20260507120546 8 338 1.6 1.6 0.00 0.00 0.00 61 1021.6
20260507120043 8 124 1.6 1.6 0.00 0.00 0.00 61 1021.5
20260507115540 8 225 0.0 0.0 0.00 0.00 0.00 61 1021.3
20260507115036 8 216 0.0 0.0 0.00 0.00 0.00 61 1021.5
20260507114531 8 223 1.6 1.6 0.00 0.00 0.00 60 1021.4
20260507114029 8 350 4.8 9.7 0.00 0.00 0.00 60 1021.2
20260507113526 8 217 0.0 1.6 0.00 0.00 0.00 60 1021.3
20260507113024 8 217 0.0 0.0 0.00 0.00 0.00 60 1021.3
20260507112521 8 212 1.6 1.6 0.00 0.00 0.00 60 1021.3
20260507112017 8 184 1.6 1.6 0.00 0.00 0.00 59 1021.3
20260507111515 8 184 0.0 1.6 0.00 0.00 0.00 59 1021.3
20260507111011 8 136 4.8 4.8 0.00 0.00 0.00 59 1021.2
20260507110508 8 102 8.0 11.3 0.00 0.00 0.00 59 1021.1
20260507110004 8 97 6.4 8.0 0.00 0.00 0.00 59 1020.9
20260507105501 8 14 1.6 1.6 0.00 0.00 0.00 59 1020.8
20260507104957 8 77 1.6 1.6 0.00 0.00 0.00 58 1021.1
20260507104455 8 84 3.2 8.0 0.00 0.00 0.00 58 1020.9
20260507103950 8 16 1.6 3.2 0.00 0.00 0.00 58 1021.1
20260507103447 8 158 3.2 4.8 0.00 0.00 0.00 58 1021.0
20260507102943 9 97 4.8 4.8 0.00 0.00 0.00 58 1021.0
20260507102440 9 227 1.6 1.6 0.00 0.00 0.00 58 1021.2
20260507101937 9 196 0.0 0.0 0.00 0.00 0.00 58 1021.1
20260507101432 9 207 1.6 3.2 0.00 0.00 0.00 58 1021.0
20260507100928 9 322 3.2 4.8 0.00 0.00 0.00 57 1021.4
20260507100426 9 217 1.6 1.6 0.00 0.00 0.00 57 1021.3
20260507095924 9 217 3.2 8.0 0.00 0.00 0.00 57 1021.4
20260507095421 9 22 1.6 3.2 0.00 0.00 0.00 57 1021.6
20260507094918 10 195 3.2 8.0 0.00 0.00 0.00 57 1021.4
20260507094414 10 148 4.8 8.0 0.00 0.00 0.00 56 1021.0
20260507093911 10 133 1.6 4.8 0.00 0.00 0.00 56 1021.2
20260507093409 10 315 4.8 9.7 0.00 0.00 0.00 56 1021.3
20260507092908 10 252 3.2 8.0 0.00 0.00 0.00 56 1021.4
20260507092403 10 58 1.6 1.6 0.00 0.00 0.00 55 1021.5
20260507091900 10 89 4.8 8.0 0.00 0.00 0.00 55 1021.6
20260507091356 10 145 1.6 3.2 0.00 0.00 0.00 56 1021.4
20260507090852 10 79 4.8 8.0 0.00 0.00 0.00 56 1021.4
20260507090349 10 96 1.6 3.2 0.00 0.00 0.00 56 1021.3
20260507085846 10 80 4.8 8.0 0.00 0.00 0.00 56 1021.3
20260507085342 10 190 6.4 12.9 0.00 0.00 0.00 56 1021.5
20260507084840 10 153 0.0 1.6 0.00 0.00 0.00 56 1021.5
20260507084336 10 108 1.6 3.2 0.00 0.00 0.00 56 1021.3
20260507083834 10 200 1.6 4.8 0.00 0.00 0.00 56 1021.2
20260507083330 11 241 0.0 1.6 0.00 0.00 0.00 55 1021.3
20260507082826 11 192 1.6 3.2 0.00 0.00 0.00 55 1021.6
20260507082322 11 207 1.6 3.2 0.00 0.00 0.00 54 1021.3
20260507081819 11 246 1.6 3.2 0.00 0.00 0.00 55 1021.4
20260507081315 11 218 3.2 9.7 0.00 0.00 0.00 55 1021.5
20260507080812 11 226 0.0 1.6 0.00 0.00 0.00 55 1021.4
20260507080308 11 251 3.2 4.8 0.00 0.00 0.00 54 1021.6
20260507075803 11 335 3.2 4.8 0.00 0.00 0.00 55 1021.3
20260507075300 11 233 4.8 8.0 0.00 0.00 0.00 55 1021.3
20260507074756 11 184 3.2 8.0 0.00 0.00 0.00 55 1021.4
20260507074255 11 212 3.2 4.8 0.00 0.00 0.00 55 1021.3
20260507073751 12 96 1.6 4.8 0.00 0.00 0.00 54 1021.3
20260507073247 12 277 4.8 9.7 0.00 0.00 0.00 54 1021.3
20260507072745 12 240 4.8 9.7 0.00 0.00 0.00 54 1021.4
20260507072243 12 58 4.8 8.0 0.00 0.00 0.00 54 1021.2
20260507071740 12 186 0.0 1.6 0.00 0.00 0.00 54 1021.1
20260507071236 12 196 0.0 1.6 0.00 0.00 0.00 53 1021.1
20260507070733 12 216 4.8 9.7 0.00 0.00 0.00 53 1021.3
20260507070230 12 48 1.6 3.2 0.00 0.00 0.00 53 1021.2
20260507065727 12 209 0.0 0.0 0.00 0.00 0.00 53 1021.2
20260507065224 12 219 4.8 8.0 0.00 0.00 0.00 53 1021.2
20260507064721 12 295 4.8 4.8 0.00 0.00 0.00 53 1021.0
20260507064220 12 170 3.2 3.2 0.00 0.00 0.00 53 1021.0
20260507063716 13 310 3.2 3.2 0.00 0.00 0.00 53 1021.1
20260507063213 13 311 0.0 1.6 0.00 0.00 0.00 52 1020.8
20260507062710 13 78 4.8 12.9 0.00 0.00 0.00 52 1020.6
20260507062208 13 16 3.2 3.2 0.00 0.00 0.00 52 1020.4
20260507061706 13 119 0.0 3.2 0.00 0.00 0.00 52 1020.4
20260507061203 13 56 8.0 11.3 0.00 0.00 0.00 52 1020.3
20260507060701 13 101 3.2 3.2 0.00 0.00 0.00 52 1020.1
20260507060157 13 125 11.3 17.7 0.00 0.00 0.00 52 1020.1
20260507055653 13 94 9.7 16.1 0.00 0.00 0.00 52 1020.0
20260507055149 13 169 8.0 9.7 0.00 0.00 0.00 51 1020.0
20260507054645 13 141 9.7 12.9 0.00 0.00 0.00 51 1019.9
20260507054142 14 310 3.2 4.8 0.00 0.00 0.00 51 1019.9
20260507053640 14 215 6.4 9.7 0.00 0.00 0.00 51 1020.0
20260507053138 14 244 3.2 4.8 0.00 0.00 0.00 50 1019.8
20260507052636 14 203 3.2 8.0 0.00 0.00 0.00 50 1019.6
20260507052132 14 232 4.8 8.0 0.00 0.00 0.00 50 1019.5
20260507051630 15 53 3.2 4.8 0.00 0.00 0.00 50 1019.4
20260507051126 15 256 3.2 4.8 0.00 0.00 0.00 49 1019.4
20260507050624 15 238 3.2 4.8 0.00 0.00 0.00 49 1019.1
20260507050120 15 279 3.2 8.0 0.00 0.00 0.00 49 1019.1
20260507045617 15 56 1.6 3.2 0.00 0.00 0.00 49 1019.0
20260507045114 15 343 6.4 11.3 0.00 0.00 0.00 49 1018.8
20260507044611 15 82 3.2 4.8 0.00 0.00 0.00 48 1018.4
20260507044108 15 130 8.0 12.9 0.00 0.00 0.00 48 1018.1
20260507043603 15 108 8.0 11.3 0.00 0.00 0.00 48 1018.0
20260507043101 15 73 14.5 24.1 0.00 0.00 0.00 48 1017.7
20260507042556 15 56 4.8 9.7 0.00 0.00 0.00 47 1017.7
20260507042052 15 116 11.3 20.9 0.00 0.00 0.00 47 1017.7
20260507041549 16 107 9.7 12.9 0.00 0.00 0.00 47 1017.4
20260507041046 16 119 11.3 16.1 0.00 0.00 0.00 46 1017.2
20260507040543 16 113 11.3 17.7 0.00 0.00 0.00 46 1017.2
20260507040039 16 105 12.9 20.9 0.00 0.00 0.00 46 1017.3
20260507035535 16 103 8.0 12.9 0.00 0.00 0.00 45 1017.0
20260507035032 16 98 9.7 12.9 0.00 0.00 0.00 45 1017.1
20260507034528 16 196 6.4 9.7 0.00 0.00 0.00 45 1017.0
20260507034026 16 114 8.0 12.9 0.00 0.00 0.00 44 1016.9
20260507033524 16 109 14.5 20.9 0.00 0.00 0.00 44 1016.8
20260507033021 16 119 14.5 17.7 0.00 0.00 0.00 43 1016.7
20260507032518 17 149 3.2 8.0 0.00 0.00 0.00 43 1016.6
20260507032014 17 123 8.0 9.7 0.00 0.00 0.00 42 1016.9
20260507031510 17 95 12.9 14.5 0.00 0.00 0.00 42 1017.0
20260507031008 17 104 8.0 12.9 0.00 0.00 0.00 41 1016.8
20260507030504 17 124 8.0 9.7 0.00 0.00 0.00 41 1016.5
20260507030002 17 106 4.8 8.0 0.00 0.00 0.00 41 1016.5
20260507025459 17 107 6.4 9.7 0.00 0.00 0.00 40 1016.2
20260507024957 17 142 6.4 8.0 0.00 0.00 0.00 40 1016.2
20260507024454 17 88 11.3 16.1 0.00 0.00 0.00 40 1016.3
20260507023950 18 118 4.8 4.8 0.00 0.00 0.00 40 1016.2
20260507023446 18 104 11.3 20.9 0.00 0.00 0.00 39 1016.0
20260507022944 18 120 4.8 8.0 0.00 0.00 0.00 39 1015.7
20260507022441 18 99 17.7 24.1 0.00 0.00 0.00 39 1015.8
20260507021930 18 138 8.0 9.7 0.00 0.00 0.00 38 1015.7
20260507021425 18 119 11.3 12.9 0.00 0.00 0.00 38 1015.4
20260507020924 18 75 12.9 22.5 0.00 0.00 0.00 37 1015.4
20260507020420 18 104 12.9 16.1 0.00 0.00 0.00 37 1015.5
20260507015917 19 109 16.1 22.5 0.00 0.00 0.00 36 1015.2
20260507015416 19 62 8.0 11.3 0.00 0.00 0.00 36 1015.1
20260507014912 19 87 11.3 12.9 0.00 0.00 0.00 36 1014.9
20260507014409 20 136 9.7 12.9 0.00 0.00 0.00 35 1014.7
20260507013905 20 77 8.0 12.9 0.00 0.00 0.00 35 1014.7
20260507013402 20 112 11.3 14.5 0.00 0.00 0.00 35 1014.5
20260507012900 20 115 8.0 16.1 0.00 0.00 0.00 34 1014.4
20260507012355 20 107 8.0 14.5 0.00 0.00 0.00 34 1014.6
20260507011853 20 142 8.0 12.9 0.00 0.00 0.00 34 1014.4
20260507011350 20 86 9.7 12.9 0.00 0.00 0.00 33 1014.0
20260507010849 21 132 8.0 11.3 0.00 0.00 0.00 33 1014.3
20260507010345 21 195 8.0 14.5 0.00 0.00 0.00 32 1014.1
20260507005843 21 96 8.0 12.9 0.00 0.00 0.00 32 1013.9
20260507005339 21 87 11.3 12.9 0.00 0.00 0.00 31 1013.7
20260507004836 21 122 8.0 11.3 0.00 0.00 0.00 31 1013.7
20260507004333 21 102 9.7 12.9 0.00 0.00 0.00 31 1013.8
20260507003830 21 98 8.0 9.7 0.00 0.00 0.00 31 1013.7
20260507003326 22 123 8.0 11.3 0.00 0.00 0.00 30 1013.8
20260507002821 22 153 9.7 11.3 0.00 0.00 0.00 30 1013.7
20260507002317 22 141 11.3 14.5 0.00 0.00 0.00 29 1013.6
20260507001815 22 145 9.7 12.9 0.00 0.00 0.00 29 1013.5
20260507001311 22 118 6.4 9.7 0.00 0.00 0.00 29 1013.5
20260507000807 22 114 6.4 8.0 0.00 0.00 0.00 29 1013.7
20260507000259 22 62 9.7 14.5 0.00 0.00 0.00 29 1013.5
20260506235755 23 111 6.4 11.3 0.00 0.00 0.00 28 1013.4
20260506235250 23 218 3.2 3.2 0.00 0.00 0.00 28 1013.4
20260506234748 22 92 6.4 11.3 0.00 0.00 0.00 29 1013.6
20260506234245 23 181 4.8 4.8 0.00 0.00 0.00 28 1013.8
20260506233742 23 129 8.0 12.9 0.00 0.00 0.00 28 1013.5
20260506233238 23 69 11.3 12.9 0.00 0.00 0.00 28 1013.6
20260506232735 23 84 8.0 11.3 0.00 0.00 0.00 28 1013.3
20260506232230 23 78 4.8 8.0 0.00 0.00 0.00 28 1013.6
20260506231728 23 148 6.4 8.0 0.00 0.00 0.00 28 1013.5
20260506231226 23 181 6.4 9.7 0.00 0.00 0.00 28 1013.5
20260506230722 23 170 4.8 4.8 0.00 0.00 0.00 28 1013.6
20260506230219 23 222 4.8 8.0 0.00 0.00 0.00 28 1013.5
20260506225716 23 151 6.4 8.0 0.00 0.00 0.00 28 1013.6
20260506225213 23 128 8.0 11.3 0.00 0.00 0.00 28 1013.7
20260506224709 23 160 4.8 4.8 0.00 0.00 0.00 28 1013.7
20260506224207 23 271 8.0 9.7 0.00 0.00 0.00 28 1013.6
20260506223702 23 135 8.0 9.7 0.00 0.00 0.00 28 1013.7
20260506223158 23 126 4.8 9.7 0.00 0.00 0.00 28 1013.5
20260506222655 23 56 8.0 11.3 0.00 0.00 0.00 28 1013.6
20260506222151 23 86 4.8 8.0 0.00 0.00 0.00 28 1013.8
20260506221650 23 115 4.8 8.0 0.00 0.00 0.00 28 1013.8
20260506221147 23 226 1.6 3.2 0.00 0.00 0.00 28 1013.8
20260506220644 22 46 1.6 3.2 0.00 0.00 0.00 29 1013.7
20260506220139 23 167 8.0 11.3 0.00 0.00 0.00 28 1013.9
20260506215636 22 132 8.0 9.7 0.00 0.00 0.00 29 1013.8
20260506215131 23 236 1.6 1.6 0.00 0.00 0.00 28 1014.1
20260506214628 23 218 1.6 3.2 0.00 0.00 0.00 29 1014.1
20260506214126 23 241 4.8 8.0 0.00 0.00 0.00 29 1014.3
20260506213624 22 181 1.6 3.2 0.00 0.00 0.00 29 1014.3
20260506213120 22 225 0.0 0.0 0.00 0.00 0.00 30 1014.1
20260506212618 22 228 4.8 4.8 0.00 0.00 0.00 30 1014.4
20260506212113 22 175 6.4 9.7 0.00 0.00 0.00 31 1014.3
20260506211608 22 236 6.4 9.7 0.00 0.00 0.00 30 1014.6
20260506211106 22 148 4.8 4.8 0.00 0.00 0.00 30 1014.4
20260506210603 22 191 4.8 8.0 0.00 0.00 0.00 31 1014.6
20260506210059 22 156 3.2 4.8 0.00 0.00 0.00 31 1015.0
20260506205555 23 71 6.4 9.7 0.00 0.00 0.00 30 1015.0
20260506205050 23 191 8.0 9.7 0.00 0.00 0.00 28 1015.1
20260506204549 23 169 4.8 4.8 0.00 0.00 0.00 29 1015.2
20260506204046 22 233 1.6 3.2 0.00 0.00 0.00 30 1015.0
20260506203544 22 281 1.6 1.6 0.00 0.00 0.00 31 1015.4
20260506203040 22 172 1.6 4.8 0.00 0.00 0.00 32 1015.1
20260506202538 22 238 1.6 3.2 0.00 0.00 0.00 31 1015.2
20260506202034 22 104 1.6 1.6 0.00 0.00 0.00 33 1015.4
20260506201532 22 107 6.4 9.7 0.00 0.00 0.00 32 1015.5
20260506201028 22 195 1.6 1.6 0.00 0.00 0.00 31 1015.4
20260506200524 22 293 4.8 4.8 0.00 0.00 0.00 31 1015.5
20260506200021 22 123 3.2 8.0 0.00 0.00 0.00 33 1015.5
20260506195518 22 155 3.2 4.8 0.00 0.00 0.00 32 1015.5
20260506195014 21 199 1.6 1.6 0.00 0.00 0.00 34 1015.2
20260506194512 21 237 1.6 1.6 0.00 0.00 0.00 34 1015.5
20260506194008 20 317 3.2 3.2 0.00 0.00 0.00 35 1015.7
20260506193506 21 169 4.8 4.8 0.00 0.00 0.00 34 1015.2
20260506193003 20 131 6.4 8.0 0.00 0.00 0.00 35 1015.5
20260506192459 20 199 1.6 1.6 0.00 0.00 0.00 36 1015.8
20260506191955 20 179 4.8 4.8 0.00 0.00 0.00 36 1015.5
20260506191452 20 147 4.8 9.7 0.00 0.00 0.00 35 1015.8
20260506190948 20 245 0.0 0.0 0.00 0.00 0.00 37 1015.4
20260506190446 20 125 6.4 9.7 0.00 0.00 0.00 37 1015.6
20260506185942 20 233 0.0 1.6 0.00 0.00 0.00 39 1015.7
20260506185439 19 179 0.0 1.6 0.00 0.00 0.00 38 1015.8
20260506184936 20 142 3.2 4.8 0.00 0.00 0.00 38 1015.9
20260506184433 19 219 1.6 1.6 0.00 0.00 0.00 39 1015.8
20260506183931 18 237 1.6 1.6 0.00 0.00 0.00 40 1016.1
20260506183426 18 135 4.8 8.0 0.00 0.00 0.00 40 1015.9
20260506182923 18 156 6.4 8.0 0.00 0.00 0.00 40 1016.2
20260506182420 18 232 4.8 8.0 0.00 0.00 0.00 40 1016.1
20260506181918 18 174 4.8 8.0 0.00 0.00 0.00 41 1016.2
20260506181415 18 181 3.2 4.8 0.00 0.00 0.00 42 1016.3
20260506180912 18 129 3.2 4.8 0.00 0.00 0.00 41 1016.7
20260506180408 18 132 1.6 3.2 0.00 0.00 0.00 42 1016.5
20260506175905 18 196 0.0 1.6 0.00 0.00 0.00 42 1016.7
20260506175402 18 240 1.6 1.6 0.00 0.00 0.00 44 1016.5
20260506174859 17 228 0.0 1.6 0.00 0.00 0.00 45 1016.6
20260506174356 16 122 1.6 3.2 0.00 0.00 0.00 46 1016.7
20260506173854 16 189 4.8 8.0 0.00 0.00 0.00 46 1016.3
20260506173350 16 70 4.8 8.0 0.00 0.00 0.00 46 1016.7
20260506172847 16 135 6.4 8.0 0.00 0.00 0.00 47 1016.5
20260506172344 15 139 4.8 8.0 0.00 0.00 0.00 48 1016.8
20260506171841 15 214 1.6 1.6 0.00 0.00 0.00 49 1016.6
20260506171338 15 111 6.4 9.7 0.00 0.00 0.00 49 1016.8
20260506170836 15 176 3.2 3.2 0.00 0.00 0.00 49 1016.8
20260506170332 15 38 4.8 8.0 0.00 0.00 0.00 49 1016.8
20260506165831 15 118 6.4 11.3 0.00 0.00 0.00 48 1016.6
20260506165329 15 192 1.6 1.6 0.00 0.00 0.00 51 1016.6
20260506164825 15 123 4.8 8.0 0.00 0.00 0.00 50 1016.8
20260506164322 15 89 3.2 3.2 0.00 0.00 0.00 50 1017.0
20260506163819 15 108 4.8 4.8 0.00 0.00 0.00 50 1016.8
20260506163314 15 84 3.2 4.8 0.00 0.00 0.00 51 1017.1
20260506162809 15 77 8.0 12.9 0.00 0.00 0.00 49 1016.9
20260506162308 15 224 1.6 1.6 0.00 0.00 0.00 52 1016.9
20260506161804 13 208 0.0 0.0 0.00 0.00 0.00 54 1017.0
20260506161301 13 126 8.0 11.3 0.00 0.00 0.00 54 1017.1
20260506160754 13 298 3.2 4.8 0.00 0.00 0.00 55 1016.9
20260506160250 13 125 6.4 9.7 0.00 0.00 0.00 55 1017.0
20260506155749 12 108 6.4 9.7 0.00 0.00 0.00 58 1016.8
20260506155245 12 169 6.4 9.7 0.00 0.00 0.00 58 1016.8
20260506153358 12 55 1.6 3.2 0.00 0.00 0.00 61 1016.8
20260506152855 12 245 1.6 3.2 0.00 0.00 0.00 62 1016.8
20260506152352 11 233 1.6 3.2 0.00 0.00 0.00 64 1016.8
20260506151851 11 193 1.6 1.6 0.00 0.00 0.00 64 1016.9
20260506151347 11 139 3.2 3.2 0.00 0.00 0.00 66 1016.9
20260506150845 11 299 3.2 3.2 0.00 0.00 0.00 66 1017.0
20260506150341 10 19 1.6 3.2 0.00 0.00 0.00 69 1016.8
20260506145838 10 5 1.6 3.2 0.00 0.00 0.00 69 1016.8
20260506145334 10 223 0.0 0.0 0.00 0.00 0.00 72 1016.8
20260506144832 10 138 1.6 1.6 0.00 0.00 0.00 71 1016.7
20260506144328 10 218 0.0 0.0 0.00 0.00 0.00 72 1016.8
20260506143827 9 163 1.6 3.2 0.00 0.00 0.00 74 1016.5
20260506143323 8 115 8.0 11.3 0.00 0.00 0.00 74 1016.7
20260506142822 8 167 1.6 3.2 0.00 0.00 0.00 75 1016.5
20260506142319 8 180 8.0 11.3 0.00 0.00 0.00 76 1016.6
20260506141817 8 226 1.6 3.2 0.00 0.00 0.00 76 1016.3
20260506141315 8 169 4.8 9.7 0.00 0.00 0.00 77 1016.2
20260506140813 8 39 1.6 3.2 0.00 0.00 0.00 77 1016.6
20260506140309 8 81 3.2 3.2 0.00 0.00 0.00 77 1016.3
20260506135806 8 90 1.6 1.6 0.00 0.00 0.00 78 1016.5
20260506135305 8 198 1.6 1.6 0.00 0.00 0.00 79 1016.3
20260506134759 8 173 1.6 3.2 0.00 0.00 0.00 79 1016.3
20260506134255 8 142 4.8 9.7 0.00 0.00 0.00 79 1015.9
20260506133753 8 205 1.6 3.2 0.00 0.00 0.00 79 1015.9
20260506133250 8 128 1.6 3.2 0.00 0.00 0.00 79 1016.0
20260506132746 8 86 1.6 4.8 0.00 0.00 0.00 79 1015.8
20260506132244 8 214 1.6 3.2 0.00 0.00 0.00 79 1016.0
20260506131742 8 172 1.6 4.8 0.00 0.00 0.00 79 1015.9
20260506131237 8 71 1.6 3.2 0.00 0.00 0.00 79 1015.8
20260506130734 8 77 3.2 9.7 0.00 0.00 0.00 78 1015.8
20260506130231 8 191 1.6 3.2 0.00 0.00 0.00 78 1015.8
20260506125729 8 350 0.0 1.6 0.00 0.00 0.00 78 1015.8